Regional Weather Roundup
Issued by NWS

Home | Current Version | Previous Version | Graphics & Text | Print | Product List | Glossary On
Versions: 1 2 3 4 5 6 7 8 9 10 11 12 13 14 15 16 17 18 19 20 21 22 23 24 25 26 27 28 29 30 31 32 33 34 35 36 37 38 39 40 41 42 43 44 45 46 47 48 49 50
000
ASUS45 KBOU 221507
RWRCO

WEATHER ROUNDUP FOR COLORADO
NATIONAL WEATHER SERVICE DENVER/BOULDER CO
800 AM MST MON DEC 22 2014

NOTE: "FAIR" INDICATES FEW OR NO CLOUDS BELOW 12000 FEET WITH NO
SIGNIFICANT WEATHER AND/OR OBSTRUCTIONS TO VISIBILITY.

COZ001>005-013-030-031-221600-
...NORTHWEST COLORADO...

CITY           SKY/WX    TMP DP  RH WIND       PRES   REMARKS
CRAIG            N/A    N/A N/A N/A MISG      29.84S
HAYDEN         CLOUDY    30  23  74 W17G23    29.81S WCI  18
MEEKER         CLOUDY    32  27  81 NW3       29.86S
MOUNT WERNER   NOT AVBL
STEAMBOAT SPGS CLOUDY    29  23  79 W13       29.80S WCI  18
WALDEN         CLOUDY    14  10  85 E7        29.75F WCI   4
$$

COZ006>008-011-221600-
...WEST CENTRAL VALLEYS...

CITY           SKY/WX    TMP DP  RH WIND       PRES   REMARKS
GRAND JUNCTION CLOUDY    33  32  96 CALM      29.86F
MONTROSE       CLOUDY    34  31  88 S7        29.89R WCI  28
EAGLE          CLOUDY    28  27  93 E5        29.83F WCI  23
RIFLE          CLOUDY    34  32  92 SW3       29.86F
DELTA          CLOUDY    35  33  92 CALM      29.86F
NUCLA          CLOUDY    36  32  87 E6        29.94F
$$

COZ017>023-064>068-221600-
...SOUTHWEST COLORADO...

CITY           SKY/WX    TMP DP  RH WIND       PRES   REMARKS
DURANGO        MOCLDY    39  29  67 W24G35    29.84F
CORTEZ         CLOUDY    34  31  88 CALM      29.93S
PAGOSA SPRINGS CLOUDY    31  31 100 CALM      29.83F
TELLURIDE      LGT SNOW  29  28  96 W20G26    29.92S VSB 1   WCI  17
WOLF CREEK PAS SNOW      19  19 100 MISG      29.84F VSB 1/2
$$

COZ009-010-012-014-032>034-037-058>063-221600-
...CENTRAL COLORADO...

CITY           SKY/WX    TMP DP  RH WIND       PRES   REMARKS
ASPEN          LGT SNOW  26  24  92 N7        29.81F FOG     WCI  18
BUENA VISTA    CLOUDY    27  22  80 NW6       29.77S WCI  21
COPPER MTN     CLOUDY    14   9  79 W22       29.72F WCI  -4
BERTHOUD PASS  HVY SNOW   7   1  78 MISG      29.62F VSB<1/4
COTTONWOOD PAS LGT SNOW  27  19  74 W12G21    29.75F VSB 3/4 WCI  16
GUNNISON       CLOUDY    28  25  86 CALM      29.81F VSB 1/4
KREMMLING      LGT SNOW  28  23  80 SW5       29.79F WCI  23
LEADVILLE      LGT SNOW  17  15  92 N3        29.73F FOG
SALIDA         CLOUDY    32  28  85 NW6       29.85S WCI  26
SUNLIGHT       CLOUDY   N/A N/A N/A MISG      29.82F
WILKERSON PASS LGT SNOW  14  12  92 NW10G18   29.75F WCI   1
$$

COZ069>075-221600-
...SAN LUIS VALLEY/SANGRE DE CRISTO MOUNTAINS...

CITY           SKY/WX    TMP DP  RH WIND       PRES   REMARKS
ALAMOSA        CLOUDY    30  27  88 NE7       29.76F WCI  23
LA VETA PASS   LGT SNOW  27  23  86 SW6       29.76S WCI  20
SAGUACHE       LGT SNOW  32  28  86 NW8       29.78S WCI  25
$$

COZ035-036-038>040-221600-
...NORTHERN COLORADO FRONT RANGE...

CITY           SKY/WX    TMP DP  RH WIND       PRES   REMARKS
DENVER INTL AP MOCLDY    28  23  81 S3        29.73F
DMNS CITY PARK   N/A     31  29  92 S6        29.73F WCI  26
AURORA         MOCLDY    29  26  90 S8        29.74F WCI  21
FRONT RANGE AP NOT AVBL
ERIE MUNI ARPT   N/A     31  27  86 CALM      29.73S
BOULDER MUN AP MOCLDY    36  21  55 N6        29.72F
CENTENNIAL     CLOUDY    28  25  88 S5        29.73F WCI  23
BROOMFIELD     MOCLDY    30  27  86 CALM      29.73F
FORT COLLINS   CLOUDY    34  16  47 CALM      29.74S
LONGMONT       CLOUDY    29  27  90 CALM      29.74F
$$

COZ041-046-047-076>085-087-088-221600-
...PIKES PEAK/PALMER DIVIDE AND SOUTHERN FOOTHILLS...

CITY           SKY/WX    TMP DP  RH WIND       PRES   REMARKS
COLO. SPRINGS  MOCLDY    32  25  75 W7        29.76S WCI  26
A. F. ACADEMY  MOCLDY    27  20  72 NW5       29.75S WCI  22
ELLICOTT       NOT AVBL
FALCON         MOCLDY    27  23  86 NW5       29.76S WCI  21
FORT CARSON    MOCLDY    32  29  87 VRB2      29.75S
LIMON          CLEAR     26  23  88 W8        29.75S WCI  18
MONUMENT HILL  CLOUDY    23  23 100 W6        29.73S WCI  16
TRINIDAD       HVY SNOW  31  30  96 S5        29.80S VSB 1/4 WCI  26
$$

COZ042>045-048>051-090-091-221600-
...NORTHEAST COLORADO...

CITY           SKY/WX    TMP DP  RH WIND       PRES   REMARKS
GREELEY ARPT   MOCLDY    28  18  64 N8        29.73S WCI  20
AKRON          MOCLDY    31  26  82 W9        29.72F WCI  23
BURLINGTON     MOCLDY    34  27  75 NW16      29.72R WCI  24
WRAY           CLOUDY    36  31  82 W16G23    29.69S
STERLING       PTCLDY    32  28  86 W9        29.71R WCI  24
HOLYOKE        CLOUDY    37  30  75 NW12G21   29.67F
FORT MORGAN    PTCLDY    29  22  75 NW13      29.73F WCI  19
$$

COZ086-089-092>099-221600-
...SOUTHEAST COLORADO...

CITY           SKY/WX    TMP DP  RH WIND       PRES   REMARKS
PUEBLO         CLOUDY    33  30  88 CALM      29.77S
LA JUNTA       CLOUDY    37  27  67 W6        29.78R
LAMAR          MOCLDY    35  27  72 W9        29.74R WCI  28
SPRINGFIELD      N/A     38  29  70 NW14      29.75R
$$


USA.gov is the U.S. government's official web portal to all federal, state and local government web resources and services.